• en Belgique
  • Liste des pays
  • À 7 jours
  • Température de l'eau
  • Carte satellitaire
  • Carte météo
  • Widgets météo
  • user-avatar
    Se connecter

    Météo par heure à Albany

    Ce jour, 25 Septembre, Lundi

    Heure Température Précipitation Vent Pression Humidité
    00:00 +9°C° 1,7 mm 8 m/s 751 mmHg 92%
    01:00 +7°C° 1,7 mm 8 m/s 750 mmHg 92%
    02:00 +7°C° 0 mm 8 m/s 750 mmHg 93%
    03:00 +7°C° 2,3 mm 8 m/s 750 mmHg 93%
    04:00 +7°C° 2,3 mm 8 m/s 750 mmHg 93%
    05:00 +7°C° 2,3 mm 8 m/s 750 mmHg 93%
    06:00 +7°C° 1,7 mm 8 m/s 750 mmHg 93%
    07:00 +7°C° 1,7 mm 8 m/s 750 mmHg 92%
    08:00 +7°C° 0 mm 8 m/s 750 mmHg 92%
    09:00 +7°C° 1,4 mm 8 m/s 750 mmHg 91%
    10:00 +8°C° 1,4 mm 9 m/s 750 mmHg 90%
    11:00 +8°C° 1,4 mm 9 m/s 750 mmHg 89%
    12:00 +8°C° 1,5 mm 9 m/s 750 mmHg 89%
    13:00 +8°C° 1,5 mm 9 m/s 750 mmHg 89%
    14:00 +8°C° 1,5 mm 9 m/s 750 mmHg 90%
    15:00 +8°C° 0,8 mm 9 m/s 750 mmHg 90%
    16:00 +8°C° 0,8 mm 9 m/s 750 mmHg 90%
    17:00 +8°C° 0,8 mm 9 m/s 750 mmHg 91%
    18:00 +8°C° 0,7 mm 10 m/s 750 mmHg 90%
    19:00 +9°C° 0,7 mm 10 m/s 750 mmHg 90%
    20:00 +9°C° 0,7 mm 11 m/s 750 mmHg 90%
    21:00 +9°C° 0,5 mm 11 m/s 750 mmHg 89%
    22:00 +9°C° 0,5 mm 11 m/s 750 mmHg 88%
    23:00 +9°C° 0,5 mm 12 m/s 750 mmHg 87%

    Demain, 26 Septembre, Mardi

    Heure Température Précipitation Vent Pression Humidité
    00:00 +9°C° 0,9 mm 12 m/s 750 mmHg 88%
    01:00 +9°C° 0,9 mm 11 m/s 750 mmHg 89%
    02:00 +9°C° 0,9 mm 11 m/s 750 mmHg 89%
    03:00 +9°C° 0,7 mm 11 m/s 750 mmHg 89%
    04:00 +8°C° 0,7 mm 11 m/s 751 mmHg 89%
    05:00 +8°C° 0,7 mm 10 m/s 751 mmHg 89%
    06:00 +8°C° 0,4 mm 10 m/s 751 mmHg 89%
    07:00 +8°C° 0,4 mm 10 m/s 752 mmHg 88%
    08:00 +8°C° 0,4 mm 10 m/s 753 mmHg 87%
    09:00 +9°C° 0,4 mm 10 m/s 753 mmHg 86%
    10:00 +9°C° 0,4 mm 10 m/s 754 mmHg 84%
    11:00 +10°C° 0,4 mm 9 m/s 754 mmHg 83%
    12:00 +11°C° 0,3 mm 9 m/s 754 mmHg 78%
    13:00 +11°C° 0,3 mm 9 m/s 754 mmHg 74%
    14:00 +11°C° 0,3 mm 9 m/s 755 mmHg 69%
    15:00 +11°C° 0,1 mm 8 m/s 755 mmHg 69%
    16:00 +11°C° 0,1 mm 8 m/s 756 mmHg 69%
    17:00 +10°C° 0,1 mm 7 m/s 756 mmHg 68%
    18:00 +9°C° 0,1 mm 7 m/s 757 mmHg 72%
    19:00 +9°C° 0,1 mm 6 m/s 757 mmHg 75%
    20:00 +8°C° 0,1 mm 5 m/s 758 mmHg 78%
    21:00 +8°C° 0,1 mm 5 m/s 758 mmHg 80%
    22:00 +7°C° 0,1 mm 5 m/s 758 mmHg 82%
    23:00 +7°C° 0,1 mm 5 m/s 758 mmHg 84%

    Après-demain, 27 Septembre, Mercredi

    Heure Température Précipitation Vent Pression Humidité
    00:00 +7°C° 0,2 mm 5 m/s 758 mmHg 85%
    01:00 +7°C° 0,2 mm 5 m/s 758 mmHg 85%
    02:00 +7°C° 0,2 mm 5 m/s 758 mmHg 86%
    03:00 +7°C° 0,1 mm 5 m/s 758 mmHg 85%
    04:00 +7°C° 0,1 mm 5 m/s 759 mmHg 84%
    05:00 +7°C° 0,1 mm 5 m/s 759 mmHg 82%
    06:00 +7°C° 0,1 mm 4 m/s 759 mmHg 81%
    07:00 +8°C° 0,1 mm 4 m/s 759 mmHg 81%
    08:00 +8°C° 0,1 mm 4 m/s 760 mmHg 80%
    09:00 +10°C° 0,1 mm 4 m/s 760 mmHg 78%
    10:00 +11°C° 0,1 mm 4 m/s 760 mmHg 76%
    11:00 +12°C° 0,1 mm 5 m/s 760 mmHg 75%
    12:00 +12°C° 0,1 mm 5 m/s 759 mmHg 72%
    13:00 +13°C° 0,1 mm 5 m/s 759 mmHg 70%
    14:00 +14°C° 0,1 mm 5 m/s 759 mmHg 67%
    15:00 +13°C° 0,1 mm 5 m/s 759 mmHg 69%
    16:00 +13°C° 0,1 mm 5 m/s 759 mmHg 72%
    17:00 +13°C° 0,1 mm 5 m/s 759 mmHg 74%
    18:00 +12°C° 0,1 mm 4 m/s 759 mmHg 78%
    19:00 +11°C° 0,1 mm 4 m/s 760 mmHg 81%
    20:00 +10°C° 0,1 mm 4 m/s 760 mmHg 85%
    21:00 +10°C° 0,1 mm 4 m/s 760 mmHg 87%
    22:00 +10°C° 0,1 mm 3 m/s 760 mmHg 88%
    23:00 +10°C° 0,1 mm 3 m/s 760 mmHg 90%

    28 Septembre, Jeudi

    Heure Température Précipitation Vent Pression Humidité
    00:00 +9°C° 0,1 mm 3 m/s 760 mmHg 91%
    01:00 +9°C° 0,1 mm 3 m/s 760 mmHg 91%
    02:00 +9°C° 0,1 mm 3 m/s 760 mmHg 92%
    03:00 +9°C° 0,1 mm 3 m/s 760 mmHg 92%
    04:00 +9°C° 0,1 mm 3 m/s 759 mmHg 91%
    05:00 +9°C° 0,1 mm 3 m/s 759 mmHg 91%
    06:00 +9°C° 0,2 mm 2 m/s 760 mmHg 90%
    07:00 +10°C° 0,2 mm 2 m/s 760 mmHg 88%
    08:00 +12°C° 0,2 mm 2 m/s 761 mmHg 86%
    09:00 +13°C° 0,3 mm 2 m/s 761 mmHg 81%
    10:00 +14°C° 0,3 mm 2 m/s 761 mmHg 76%
    11:00 +15°C° 0,3 mm 2 m/s 761 mmHg 71%
    12:00 +16°C° 0,3 mm 3 m/s 761 mmHg 70%
    13:00 +16°C° 0,3 mm 3 m/s 760 mmHg 69%
    14:00 +15°C° 0,3 mm 4 m/s 760 mmHg 68%
    15:00 +14°C° 0,2 mm 4 m/s 760 mmHg 71%
    16:00 +14°C° 0,2 mm 4 m/s 761 mmHg 74%
    17:00 +13°C° 0,2 mm 4 m/s 761 mmHg 77%
    18:00 +12°C° 0 mm 4 m/s 762 mmHg 79%
    19:00 +11°C° 0 mm 4 m/s 762 mmHg 81%
    20:00 +10°C° 0 mm 3 m/s 763 mmHg 83%
    21:00 +10°C° 0 mm 3 m/s 763 mmHg 82%
    22:00 +10°C° 0 mm 3 m/s 763 mmHg 80%
    23:00 +10°C° 0 mm 2 m/s 763 mmHg 78%

    29 Septembre, Vendredi

    Heure Température Précipitation Vent Pression Humidité
    00:00 +10°C° 0 mm 3 m/s 763 mmHg 77%
    01:00 +9°C° 0 mm 3 m/s 763 mmHg 76%
    02:00 +9°C° 0 mm 3 m/s 763 mmHg 76%
    03:00 +9°C° 0 mm 3 m/s 764 mmHg 76%
    04:00 +9°C° 0 mm 3 m/s 764 mmHg 77%
    05:00 +7°C° 0 mm 4 m/s 764 mmHg 77%
    06:00 +8°C° 0 mm 4 m/s 765 mmHg 75%
    07:00 +10°C° 0 mm 4 m/s 765 mmHg 74%
    08:00 +11°C° 0 mm 4 m/s 766 mmHg 72%
    09:00 +12°C° 0 mm 4 m/s 766 mmHg 70%
    10:00 +13°C° 0 mm 4 m/s 766 mmHg 67%
    11:00 +14°C° 0 mm 4 m/s 766 mmHg 65%
    12:00 +14°C° 0 mm 4 m/s 766 mmHg 65%
    13:00 +14°C° 0 mm 4 m/s 766 mmHg 66%
    14:00 +14°C° 0 mm 4 m/s 766 mmHg 66%
    15:00 +14°C° 0 mm 4 m/s 766 mmHg 68%
    16:00 +14°C° 0 mm 4 m/s 766 mmHg 69%
    17:00 +13°C° 0 mm 5 m/s 766 mmHg 71%
    18:00 +12°C° 0 mm 4 m/s 767 mmHg 73%
    19:00 +12°C° 0 mm 4 m/s 767 mmHg 76%
    20:00 +11°C° 0 mm 3 m/s 768 mmHg 79%
    21:00 +10°C° 0 mm 3 m/s 768 mmHg 79%
    22:00 +10°C° 0 mm 3 m/s 768 mmHg 80%
    23:00 +10°C° 0 mm 2 m/s 768 mmHg 81%

    30 Septembre, Samedi

    Heure Température Précipitation Vent Pression Humidité
    00:00 +10°C° 0 mm 3 m/s 767 mmHg 81%
    01:00 +9°C° 0 mm 3 m/s 767 mmHg 82%
    02:00 +9°C° 0 mm 3 m/s 767 mmHg 82%
    03:00 +9°C° 0 mm 2 m/s 767 mmHg 82%
    04:00 +9°C° 0 mm 2 m/s 767 mmHg 82%
    05:00 +9°C° 0 mm 2 m/s 768 mmHg 82%
    06:00 +11°C° 0 mm 1 m/s 768 mmHg 79%
    07:00 +12°C° 0 mm 1 m/s 768 mmHg 76%
    08:00 +13°C° 0 mm 1 m/s 769 mmHg 74%
    09:00 +14°C° 0 mm 1 m/s 769 mmHg 71%
    10:00 +14°C° 0 mm 1 m/s 768 mmHg 68%
    11:00 +15°C° 0 mm 1 m/s 768 mmHg 65%
    12:00 +15°C° 0 mm 2 m/s 768 mmHg 65%
    13:00 +15°C° 0 mm 2 m/s 767 mmHg 65%
    14:00 +16°C° 0 mm 2 m/s 767 mmHg 65%
    15:00 +15°C° 0 mm 2 m/s 767 mmHg 67%
    16:00 +15°C° 0 mm 2 m/s 767 mmHg 68%
    17:00 +14°C° 0 mm 3 m/s 767 mmHg 70%
    18:00 +13°C° 0 mm 2 m/s 767 mmHg 75%
    19:00 +12°C° 0 mm 2 m/s 767 mmHg 80%
    20:00 +10°C° 0 mm 2 m/s 767 mmHg 85%
    21:00 +9°C° 0 mm 2 m/s 767 mmHg 86%
    22:00 +9°C° 0 mm 2 m/s 767 mmHg 87%
    23:00 +9°C° 0 mm 2 m/s 767 mmHg 88%
    Voir plus